Content
SEND FEEDBACK

Daily
Averages
Monthly
Summary
United States of America

PUT IN BAY, OHIO


Home > North America > United States > Ohio
Elevation: 171 meters     Latitude: 41 39N     Longitude: 082 48W

WEATHER
 
SELECT A DAY
Number of Records: 123,030;   Date Range: 12/10/00 - 9/15/14
 
SHARE

PRINT THIS DATA

[ ← Previous Day ]
WEATHER ALMANAC - 15 MARCH, 2013
[ Next Day → ]
[ °F ]   °C
Weather ElementAverageHighLow
Temperature1.8 °C4.1 °C (4:00 pm)0.5 °C (7:00 am)
Dewpoint-1.4 °C1.2 °C (9:00 pm)-5 °C (1:00 am)
Humidity78.8 %95 % (11:00 pm)61 % (2:00 am)
Barometer1013.9 hPa1019 hPa (1:00 am)1011.5 hPa (4:00 pm)
Wind Speed13 km/h22.2 km/h (7:00 am)
Wind Gust35.2 km/h (7:00 am)
Weather ElementAverage
Wind DirectionSSW (216.7 °)

Weather ElementTotal
Precipitation1.27 mm
Heating Degree Days16.1 (Base 18.3)
Averaged from 27 records on 15 March, 2013
WEATHER CONDITIONS BREAKOUT
WIND DIRECTION BREAKOUT
WEATHER BY HOUR - 15 MARCH, 2013
[ °F ]   °C
Local TimeTemperatureDewpointHumidityBarometerVisibilityWind DirectionWind SpeedGust SpeedPrecipitationEventsConditions
1:00 AM0.7 °C-5 °C66 %1019 hPaWSW (250°)11.1 km/h
2:00 AM1.1 °C-3.3 °C61 %1018.6 hPaWSW (250°)14.8 km/h
2:00 AM1 °C-3.6 °C72 %1018.6 hPaWSW (250°)14.8 km/h
3:00 AM1 °C-4.7 °C66 %1017.6 hPaWest (270°)13 km/h
4:00 AM1.1 °C-4 °C69 %1016.6 hPaWest (260°)14.8 km/h
5:00 AM0.7 °C-3.3 °C75 %1015.9 hPaWSW (250°)18.5 km/h
6:00 AM0.6 °C-3 °C77 %1014.9 hPaWSW (250°)20.4 km/h
7:00 AM0.5 °C-2.5 °C81 %1014.9 hPaWest (260°)22.2 km/h35.2 km/h
8:00 AM0.6 °C-1.7 °C78 %1013.9 hPaWSW (250°)18.5 km/h
8:00 AM0.5 °C-1.8 °C85 %1013.9 hPaWSW (250°)18.5 km/h
9:00 AM1.1 °C-1.5 °C83 %1013.9 hPaWest (260°)18.5 km/h
10:00 AM1 °C-1.4 °C84 %1013.9 hPaWSW (250°)20.4 km/h
11:00 AM1.1 °C-1.4 °C84 %1013.5 hPaWest (260°)18.5 km/h
12:00 PM1.6 °C-1.1 °C82 %1013.2 hPaWSW (250°)16.7 km/h
1:00 PM2.2 °C-1.3 °C78 %1013.2 hPaWest (260°)16.7 km/h
2:00 PM2.8 °C-1.1 °C69 %1012.9 hPaWest (260°)16.7 km/h
2:00 PM2.8 °C-0.9 °C77 %1012.9 hPaWest (260°)16.7 km/h
3:00 PM3.8 °C-0.3 °C75 %1011.9 hPaWSW (240°)13 km/h
4:00 PM4.1 °C-0.4 °C73 %1011.5 hPaWSW (250°)13 km/h
5:00 PM4.1 °C-0.4 °C73 %1011.5 hPaWSW (250°)9.3 km/h
6:00 PM4.1 °C-0.4 °C73 %1011.9 hPaWSW (250°)5.6 km/h
7:00 PM3.1 °C0.8 °C85 %1012.2 hPaNNW (340°)3.7 km/h
8:00 PM2.2 °C1.1 °C88 %1012.2 hPaNorth (10°)5.6 km/h
8:00 PM2.4 °C1 °C91 %1012.2 hPaNorth (10°)5.6 km/h0.51 mm
9:00 PM2.1 °C1.2 °C94 %1012.2 hPaNE (50°)3.7 km/h0.25 mm
10:00 PM1.9 °C1.1 °C94 %1012.2 hPaCalm
11:00 PM1.5 °C0.8 °C95 %1011.9 hPaESE (110°)1.9 km/h0.51 mm
Hourly data recorded from CXHA, located 0 kilometers away from Put In Bay, Ohio







STORIES FROM OUR PARTNERS